Location: Navajo
(48.7922°N, 105.0603°W)
Time: 02:49:36
(UTC+00:00)

QB50P2 - Visible Passes

Search period start: 26 June 2022 00:00
Search period end: 06 July 2022 00:00
Orbit: 589 x 607 km, 97.9° (Epoch: 25 June)

Date Brightness Start Highest point End Pass type
(mag) Time Alt. Az. Time Alt. Az. Time Alt. Az.
26 Jun ? 07:18:36 10° NE 07:21:09 16° E 07:23:11 12° ESE visible
26 Jun ? 08:53:02 10° N 08:57:12 60° WNW 08:59:54 21° SW visible
27 Jun ? 07:28:39 10° NE 07:31:44 19° E 07:33:46 14° SE visible
27 Jun ? 09:03:35 10° N 09:07:39 47° WNW 09:10:29 18° SW visible
28 Jun ? 07:38:50 10° NE 07:42:18 24° E 07:44:21 17° SE visible
28 Jun ? 09:14:10 10° N 09:18:04 37° WNW 09:21:03 16° SW visible
29 Jun ? 07:49:05 10° NNE 07:52:52 30° E 07:54:55 20° SE visible
29 Jun ? 09:24:46 10° N 09:28:29 30° WNW 09:31:38 13° WSW visible
30 Jun ? 07:59:25 10° NNE 08:03:23 38° E 08:05:30 23° SSE visible
30 Jun ? 09:35:25 10° N 09:38:52 25° WNW 09:42:12 11° WSW visible
01 Jul ? 08:09:46 10° NNE 08:13:53 49° E 08:16:03 25° SSE visible
01 Jul ? 09:46:07 10° NNW 09:49:15 20° WNW 09:52:22 10° WSW visible
02 Jul ? 08:20:10 10° NNE 08:24:23 63° E 08:26:37 27° S visible
02 Jul ? 09:56:54 10° NNW 09:59:36 17° WNW 10:02:18 10° W visible
03 Jul ? 08:30:36 10° NNE 08:34:51 80° ESE 08:37:10 27° S visible
03 Jul ? 10:07:48 10° NNW 10:09:56 14° WNW 10:12:05 10° W visible
04 Jul ? 07:07:32 10° ENE 07:09:05 12° E 07:10:39 10° ESE visible
04 Jul ? 08:41:03 10° NNE 08:45:19 81° WNW 08:47:43 25° SSW visible
04 Jul ? 10:18:58 10° NW 10:20:15 11° NW 10:21:33 10° WNW visible
05 Jul ? 07:17:13 10° NE 07:19:41 15° E 07:21:33 12° ESE visible
05 Jul ? 08:51:33 10° N 08:55:45 63° WNW 08:58:16 23° SSW visible
